GW3457 Weather Reports


Display with metric or nautical units.
time (UTC)temp
F
wind
direction
speed
MPH
gust
MPH
rain 1hr
in
rain 24hr
in
rain mn
in
humidity
%
barometer
mb
20260503020052 46 360 0.0 9.0 0.00 0.00 0.00 54 1015.5
20260503014620 46 360 1.0 3.0 0.00 0.00 0.00 55 1015.3
20260503013049 47 0 1.0 5.0 0.00 0.00 0.00 55 1015.1
20260503011601 47 360 2.0 8.0 0.00 0.00 0.00 56 1015.0
20260503010054 47 0 0.0 3.0 0.00 0.00 0.00 56 1014.6
20260503004559 48 360 0.0 5.0 0.00 0.00 0.00 53 1014.4
20260503003058 49 0 0.0 3.0 0.00 0.00 0.00 52 1014.1
20260503001544 49 360 2.0 5.0 0.00 0.00 0.00 51 1014.0
20260503000055 50 360 4.0 10.0 0.00 0.00 0.00 50 1013.8
20260502234552 50 360 2.0 11.0 0.00 0.00 0.00 48 1013.6
20260502233047 51 44 2.0 6.0 0.00 0.00 0.00 47 1013.4
20260502231549 52 57 3.0 7.0 0.00 0.00 0.00 44 1013.3
20260502230052 52 0 1.0 7.0 0.00 0.00 0.00 44 1013.2
20260502224604 53 43 1.0 6.0 0.00 0.00 0.00 43 1013.1
20260502223048 53 26 2.0 8.0 0.00 0.00 0.00 42 1013.0
20260502221552 54 61 1.0 5.0 0.00 0.00 0.00 42 1012.8
20260502220051 53 45 1.0 6.0 0.00 0.00 0.00 42 1012.9
20260502214552 53 47 1.0 10.0 0.00 0.00 0.00 41 1012.9
20260502213058 55 51 1.0 5.0 0.00 0.00 0.00 39 1012.9
20260502211608 54 44 5.0 15.0 0.00 0.00 0.00 40 1012.8
20260502210049 55 60 1.0 6.0 0.00 0.00 0.00 39 1012.7
20260502204550 54 24 3.0 8.0 0.00 0.00 0.00 44 1012.7
20260502203057 53 15 3.0 12.0 0.00 0.00 0.00 45 1012.7
20260502201543 53 29 6.0 13.0 0.00 0.00 0.00 45 1012.8
20260502200052 54 21 5.0 10.0 0.00 0.00 0.00 43 1012.9
20260502194606 55 9 3.0 9.0 0.00 0.00 0.00 41 1012.9
20260502193050 54 360 5.0 14.0 0.00 0.00 0.00 44 1013.2
20260502191547 55 13 4.0 10.0 0.00 0.00 0.00 40 1013.3
20260502190051 56 9 2.0 5.0 0.00 0.00 0.00 40 1013.5
20260502184559 53 0 2.0 9.0 0.00 0.00 0.00 44 1013.8
20260502183057 52 32 6.0 15.0 0.00 0.00 0.00 45 1013.9
20260502181549 54 360 6.0 12.0 0.00 0.00 0.00 43 1014.0
20260502163054 52 36 2.0 5.0 0.00 0.00 0.00 47 1014.6
20260502161550 51 24 2.0 9.0 0.00 0.00 0.00 50 1014.6
20260502151600 51 28 3.0 6.0 0.00 0.00 0.00 50 1015.0
20260502123044 45 0 1.0 4.0 0.00 0.00 0.00 66 1015.6
20260502121551 43 360 0.0 3.0 0.00 0.00 0.00 68 1015.5
20260502114604 42 360 0.0 0.0 0.00 0.00 0.00 71 1015.7
20260502113050 41 0 0.0 2.0 0.00 0.00 0.00 74 1015.6
20260502111550 40 0 0.0 2.0 0.00 0.00 0.00 79 1015.7
20260502110049 40 215 0.0 2.0 0.00 0.00 0.00 79 1015.6
20260502104552 40 0 0.0 2.0 0.00 0.00 0.00 78 1015.4
20260502103048 40 0 0.0 2.0 0.00 0.00 0.00 78 1015.5
20260502101616 40 0 0.0 2.0 0.00 0.00 0.00 76 1015.3
20260502090107 43 0 1.0 7.0 0.00 0.00 0.00 68 1014.8
20260502070058 46 360 7.0 19.0 0.00 0.00 0.00 67 1013.6
20260502064550 47 360 7.0 14.0 0.00 0.00 0.00 67 1014.0
20260502063056 47 360 8.0 16.0 0.00 0.00 0.00 67 1014.0
20260502061602 48 360 4.0 15.0 0.00 0.00 0.00 65 1014.0
20260502060052 48 360 3.0 12.0 0.00 0.00 0.00 65 1014.0
20260502054557 48 360 6.0 12.0 0.00 0.00 0.00 65 1013.9
20260502053048 48 360 4.0 12.0 0.00 0.00 0.00 65 1013.7
20260502051603 49 360 5.0 10.0 0.00 0.00 0.00 64 1014.0
20260502050042 49 360 1.0 8.0 0.00 0.00 0.00 64 1013.8
20260502044538 50 360 4.0 14.0 0.00 0.00 0.00 64 1013.8
20260502043050 50 360 4.0 12.0 0.00 0.00 0.00 64 1013.8
20260502041549 50 246 5.0 13.0 0.00 0.00 0.00 64 1014.0
20260502040056 51 360 6.0 19.0 0.00 0.00 0.00 64 1013.5
20260502034547 51 360 7.0 17.0 0.00 0.00 0.00 65 1013.2
20260502033048 52 163 6.0 14.0 0.00 0.00 0.00 65 1013.4
20260502031548 52 153 5.0 12.0 0.00 0.00 0.00 65 1013.3
20260502030055 53 198 6.0 11.0 0.00 0.00 0.00 63 1013.0
20260502024547 53 360 5.0 12.0 0.00 0.00 0.00 61 1013.0
20260502023058 54 229 3.0 10.0 0.00 0.00 0.00 59 1013.0
20260502021548 54 360 4.0 12.0 0.00 0.00 0.00 58 1013.0